Location: Capannuccia
(43.7000°N, 11.3000°E)
Time: 20:14:15
(UTC+00:00)

Cosmos 1328 Rocket - Pass Details

Date: 07 June 2020
Orbit: 601 x 628 km, 82.5° (Epoch: 05 July)

Event Time Altitude Azimuth Distance (km) Brightness Sun altitude
Rises 02:28:34 0° 352° (N) 2,903 7.6 -9.9°
Reaches altitude 10° 02:30:49 10° 354° (N) 1,988 6.7 -9.6°
Maximum altitude 02:35:13 79° 81° (E) 630 3.7 -9.1°
Drops below altitude 10° 02:39:33 10° 169° (SSE) 1,955 5.8 -8.5°
Sets 02:41:45 0° 170° (S) 2,850 6.6 -8.2°
